Location: Coupvray
(48.8929°N, 2.7967°E)
Time: 21:36:58
(UTC+00:00)

Cosmos 1241 Rocket - Pass Details

Date: 07 November 2020
Orbit: 929 x 1018 km, 65.8° (Epoch: 30 November)

Event Time Altitude Azimuth Distance (km) Brightness Sun altitude
Rises 21:42:30 0° 322° (NW) 3,746 8.2 -50.7°
Reaches altitude 10° 21:45:08 10° 326° (NW) 2,801 7.3 -51.0°
Enters shadow 21:45:22 11° 326° (NNW) 2,718 7.3 -51.1°
